Location: Joplin, MO
(37.0842°N, 94.5133°W)
Time: 21:36:33
(UTC+02:00)

Courier 1B Rocket - Pass Details

Date: 01 April 2023
Orbit: 920 x 1202 km, 28.2° (Epoch: 05 June)

Event Time Altitude Azimuth Distance (km) Brightness Sun altitude
Rises 00:37:49 0° 222° (SW) 4,074 9.1 23.3°
Reaches altitude 10° 00:41:17 10° 210° (SSW) 3,092 8.3 22.6°
Maximum altitude 00:47:10 24° 159° (SSE) 2,162 6.9 21.5°
Drops below altitude 10° 00:52:51 10° 109° (ESE) 2,971 7.1 20.4°
Sets 00:56:06 0° 96° (E) 3,882 7.6 19.7°
